Home > Time Zones > World Clock > Weather > Egypt > Cairo > Past weeks

Flag for Egypt Weather past 2 weeks in Cairo, Egypt

Now
90 °F

Clear.


Feels Like: 88 °F
Forecast: 67 / 87 °F
Wind: 7 mph from West

Location: Cairo Airport

Current Time: May 28, 2015 at 4:29:12 PM

Latest Report: May 28, 2015 at 4:00 PM


Visibility: 4 mi

Pressure: 29.80 "Hg

Humidity: 33%

Dew point: 57 °F

Location of CairoLocation

Historic Weather in Cairo — Graph

°F

Cairo temperature yesterday

Maximum temperature yesterday: 113 °F (at 3:00 PM)
Minimum temperature yesterday: 81 °F (at 4:00 AM)
Average temperature yesterday: 97 °F

Past Weeks' High & Low Weather Summary

 TemperatureHumidityPressure
High113 °F (May 27, 3:00 PM)94% (May 18, 6:00 AM)30.18 "Hg (May 18, 6:00 AM)
Low63 °F (May 15, 5:00 AM)6% (May 27, 4:00 PM)29.62 "Hg (May 27, 3:30 PM)
Average81 °F43%29.92 "Hg
* Reported May 13 3:00 PM — May 28 3:30 PM, Cairo, Weather by CustomWeather, © 2015

Note: Actual official high and low records may vary slightly from our data, if they occured in-between our weather recording intervals... More about our weather records

Advertising

Cairo weather history for previous 24 hours

 ConditionsComfort  
Time TempWeatherWind HumidityBarometerVisibility
3:30 PM
Thu, May 28
90 °FClear.10 mph33%29.80 "Hg4 mi
3:00 PM90 °FClear.9 mph36%29.80 "Hg4 mi
2:30 PM90 °FClear.9 mph36%29.80 "Hg4 mi
2:00 PM90 °FClear.8 mph38%29.83 "Hg4 mi
1:30 PM90 °FClear.9 mph38%29.83 "Hg4 mi
1:00 PM90 °FClear.7 mph38%29.83 "Hg4 mi
12:30 PM88 °FClear.9 mph40%29.83 "Hg4 mi
12:00 PM88 °FClear.8 mph40%29.83 "Hg4 mi
11:30 AM84 °FClear.6 mph51%29.86 "Hg4 mi
11:00 AM84 °FClear.6 mph51%29.86 "Hg4 mi
10:30 AM82 °FClear.5 mph58%29.86 "Hg4 mi
10:00 AM82 °FClear.5 mph58%29.86 "Hg4 mi
9:30 AM79 °FClear.5 mph65%29.86 "Hg4 mi
9:00 AM79 °FClear.5 mph65%29.86 "Hg4 mi
8:30 AM79 °FClear.6 mph65%29.86 "Hg4 mi
8:00 AM77 °FClear.6 mph69%29.83 "Hg4 mi
7:30 AM75 °FClear.6 mph78%29.83 "Hg4 mi
7:00 AM75 °FClear.6 mph78%29.83 "Hg4 mi
6:30 AM75 °FClear.8 mph69%29.80 "Hg4 mi
6:00 AM77 °FClear.8 mph65%29.80 "Hg4 mi
5:30 AM79 °FClear.5 mph51%29.80 "Hg4 mi
5:00 AM79 °FClear.5 mph51%29.80 "Hg4 mi
4:30 AM81 °FClear.5 mph42%29.77 "Hg4 mi
4:00 AM81 °FClear.5 mph42%29.77 "Hg4 mi
3:30 AM82 °FClear.5 mph35%29.77 "Hg4 mi
3:00 AM82 °FClear.5 mph35%29.77 "Hg4 mi
2:30 AM84 °FClear.5 mph31%29.77 "Hg4 mi
2:00 AM90 °FClear.5 mph17%29.74 "Hg4 mi
1:30 AM88 °FClear.7 mph16%29.71 "Hg4 mi
1:00 AM90 °FClear.6 mph15%29.74 "Hg4 mi
12:30 AM90 °FClear.3 mph18%29.74 "Hg4 mi
12:00 AM90 °FClear.8 mph21%29.77 "Hg4 mi
11:30 PM
Wed, May 27
90 °FDuststorm.9 mph18%29.77 "Hg2 mi
11:00 PM91 °FDuststorm.6 mph20%29.80 "Hg2 mi
10:30 PM90 °FDuststorm.7 mph22%29.80 "Hg2 mi
10:00 PM91 °FDuststorm.7 mph17%29.80 "Hg2 mi
9:30 PM91 °FDuststorm.5 mph23%29.77 "Hg1 mi
9:00 PM91 °FDuststorm.5 mph23%29.77 "Hg1 mi
8:30 PM93 °FDuststorm.5 mph20%29.74 "Hg1 mi
8:00 PM93 °FDuststorm.5 mph20%29.74 "Hg1 mi
7:30 PM93 °FDuststorm.7 mph21%29.74 "Hg1 mi
7:00 PM95 °FDuststorm.7 mph20%29.74 "Hg1 mi
6:30 PM95 °FSandstorm.12 mph23%29.71 "Hg1 mi
6:00 PM95 °FSandstorm.12 mph23%29.71 "Hg1 mi
5:30 PM97 °FSandstorm.12 mph10%29.68 "Hg1 mi
5:00 PM109 °FSandstorm.14 mph7%29.68 "Hg1 mi
4:30 PM109 °FSandstorm.13 mph7%29.65 "Hg2 mi
4:00 PM111 °FClear.15 mph6%29.65 "Hg4 mi
Weather by CustomWeather, © 2015

See weather overviewHow to use our weather pages